User: anonymous   Login
Location: *
(51.1248°S, 108.4023°W)
Time: 06:18:51
(UTC+00:00)
Language:

Cosmos 2251 Rocket - Orbit

View from above orbital plane
View from above orbital plane
View from above satellite
View from above satellite

Ground track
Ground track

The orbit data is extracted from the following two-line orbital elements,

1 22676U 93036B   21260.62488356  .00000087  00000-0  40291-4 0  9992
2 22676  74.0421 220.5423 0019817 229.9194 130.0221 14.34053582478017
Epoch (UTC): 17 September 2021 14:59:49
Eccentricity: 0.0019817
inclination: 74.0421°
perigee height: 764 km
apogee height: 792 km
right ascension of ascending node: 220.5423°
argument of perigee: 229.9194°
revolutions per day: 14.34053582
mean anomaly at epoch: 130.0221°
orbit number at epoch: 47801

The dashed part of the orbit path shows where the satellite is in the earth's shadow,  

DLR